カタログに戻る

ANDESITE

運用中科学SSO
NORAD 45726·PAYLOAD·🇺🇸 United States

打ち上げ Jun 13, 2020 から Rocket Lab Launch Complex 1

Loading…

次のパス (今後24時間)

TLE

最新Source: Space-Track

元期: Sep 14, 2026, 00:14 UTC

1 45726U 20037D   26257.00981257  .00002272  00000-0  15997-3 0  9997
2 45726  97.7833  90.7766 0007856 222.5313 137.5306 15.06063850339039

AllMySatでANDESITEをリアルタイム追跡

Download on the App Store